TimeEDT,TemperatureF,Dew PointF,Humidity,Sea Level PressureIn,VisibilityMPH,Wind Direction,Wind SpeedMPH,Gust SpeedMPH,PrecipitationIn,Events,Conditions,WindDirDegrees,DateUTC
12:05 AM,42.8,42.8,100,29.94,0.2,NW,5.8,-,N/A,Fog,Fog,320,2012-10-28 04:05:00
12:25 AM,42.8,42.8,100,29.94,0.2,NNW,6.9,-,N/A,Fog,Fog,340,2012-10-28 04:25:00
12:45 AM,42.8,42.8,100,29.93,0.2,NNW,5.8,-,N/A,Fog,Fog,330,2012-10-28 04:45:00
1:10 AM,42.8,42.8,100,29.93,0.2,North,4.6,-,N/A,Fog,Fog,360,2012-10-28 05:10:00
1:30 AM,42.8,42.8,100,29.93,0.2,North,4.6,-,N/A,Fog,Fog,360,2012-10-28 05:30:00
1:50 AM,42.8,42.8,100,29.92,0.2,North,4.6,-,N/A,Fog,Fog,10,2012-10-28 05:50:00
2:15 AM,42.8,42.8,100,29.91,0.2,NNW,4.6,-,N/A,Fog,Fog,340,2012-10-28 06:15:00
2:35 AM,42.8,42.8,100,29.91,0.2,North,4.6,-,N/A,Fog,Fog,350,2012-10-28 06:35:00
3:15 AM,42.8,42.8,100,29.91,0.2,North,5.8,-,N/A,Fog,Fog,350,2012-10-28 07:15:00
3:40 AM,42.8,42.8,100,29.90,0.2,North,4.6,-,N/A,Fog,Fog,360,2012-10-28 07:40:00
4:00 AM,42.8,42.8,100,29.89,0.2,North,4.6,-,N/A,Fog,Fog,350,2012-10-28 08:00:00
4:20 AM,42.8,42.8,100,29.89,0.2,NNW,5.8,-,N/A,Fog,Fog,330,2012-10-28 08:20:00
4:40 AM,42.8,42.8,100,29.88,0.2,North,4.6,-,N/A,Fog,Fog,350,2012-10-28 08:40:00
5:05 AM,42.8,42.8,100,29.89,0.2,North,5.8,-,N/A,Fog,Fog,350,2012-10-28 09:05:00
5:25 AM,42.8,42.8,100,29.88,0.2,NNW,4.6,-,N/A,Fog,Fog,340,2012-10-28 09:25:00
5:45 AM,41.0,41.0,100,29.88,0.2,North,4.6,-,N/A,Fog,Fog,350,2012-10-28 09:45:00
6:05 AM,41.0,41.0,100,29.88,0.2,NNW,5.8,-,N/A,Fog,Fog,340,2012-10-28 10:05:00
6:30 AM,41.0,41.0,100,29.88,0.2,NNW,4.6,-,N/A,Fog,Fog,340,2012-10-28 10:30:00
6:50 AM,41.0,41.0,100,29.88,0.2,NNW,5.8,-,N/A,Fog,Fog,340,2012-10-28 10:50:00
7:10 AM,41.0,41.0,100,29.87,0.5,North,5.8,-,N/A,Fog,Fog,350,2012-10-28 11:10:00
7:30 AM,41.0,41.0,100,29.87,0.5,North,3.5,-,N/A,Fog,Fog,350,2012-10-28 11:30:00
7:55 AM,41.0,41.0,100,29.86,0.2,North,5.8,-,N/A,Fog,Fog,360,2012-10-28 11:55:00
8:15 AM,41.0,41.0,100,29.87,0.2,North,4.6,-,N/A,Fog,Fog,360,2012-10-28 12:15:00
8:35 AM,42.8,42.8,100,29.87,0.2,North,3.5,-,N/A,Fog,Fog,350,2012-10-28 12:35:00
8:55 AM,42.8,42.8,100,29.87,0.2,NNW,4.6,-,N/A,Fog,Fog,340,2012-10-28 12:55:00
9:20 AM,42.8,42.8,100,29.86,0.2,North,4.6,-,N/A,Fog,Fog,360,2012-10-28 13:20:00
9:40 AM,42.8,42.8,100,29.86,0.2,North,4.6,-,N/A,Fog,Fog,360,2012-10-28 13:40:00
12:10 PM,42.8,42.8,100,29.84,0.2,NW,3.5,-,N/A,Fog,Fog,310,2012-10-28 16:10:00
12:30 PM,42.8,42.8,100,29.83,0.2,NNW,4.6,-,N/A,Fog,Fog,330,2012-10-28 16:30:00
12:50 PM,42.8,42.8,100,29.82,0.2,NNW,5.8,-,N/A,Fog,Fog,330,2012-10-28 16:50:00
1:10 PM,42.8,42.8,100,29.81,0.2,NW,5.8,-,N/A,Fog,Fog,310,2012-10-28 17:10:00
1:35 PM,42.8,42.8,100,29.80,0.2,NW,3.5,-,N/A,Fog,Fog,320,2012-10-28 17:35:00
1:55 PM,42.8,42.8,100,29.79,0.2,NNW,4.6,-,N/A,Fog,Fog,330,2012-10-28 17:55:00
2:15 PM,42.8,42.8,100,29.78,0.2,NNW,4.6,-,N/A,Fog,Fog,330,2012-10-28 18:15:00
2:35 PM,42.8,42.8,100,29.78,0.2,NNW,5.8,-,N/A,Fog,Fog,330,2012-10-28 18:35:00
3:00 PM,42.8,42.8,100,29.77,0.2,NNW,5.8,-,N/A,Fog,Fog,330,2012-10-28 19:00:00
4:00 PM,42.8,42.8,100,29.76,0.2,North,6.9,-,N/A,Fog,Fog,350,2012-10-28 20:00:00
4:25 PM,42.8,42.8,100,29.76,0.2,NNW,6.9,-,N/A,Fog,Fog,340,2012-10-28 20:25:00
4:45 PM,42.8,42.8,100,29.77,0.2,NNW,6.9,-,N/A,Fog,Fog,330,2012-10-28 20:45:00
5:05 PM,42.8,42.8,100,29.76,0.2,NNW,3.5,-,N/A,Fog,Fog,340,2012-10-28 21:05:00
5:25 PM,42.8,42.8,100,29.76,0.2,NNW,4.6,-,N/A,Fog,Fog,340,2012-10-28 21:25:00
5:50 PM,41.0,41.0,100,29.77,0.2,NNW,3.5,-,N/A,Fog,Fog,340,2012-10-28 21:50:00
6:10 PM,41.0,41.0,100,29.77,0.2,Calm,Calm,-,N/A,Fog,Fog,0,2012-10-28 22:10:00
6:30 PM,41.0,41.0,100,29.78,0.2,NNW,3.5,-,N/A,Fog,Fog,340,2012-10-28 22:30:00
6:50 PM,41.0,41.0,100,29.78,0.2,NNW,3.5,-,N/A,Fog,Fog,330,2012-10-28 22:50:00
7:35 PM,41.0,41.0,100,29.77,0.2,NNW,5.8,-,N/A,Fog,Fog,340,2012-10-28 23:35:00
7:55 PM,41.0,41.0,100,29.77,0.2,North,4.6,-,N/A,Fog,Fog,350,2012-10-28 23:55:00
8:15 PM,41.0,41.0,100,29.77,0.2,North,4.6,-,N/A,Fog,Fog,360,2012-10-29 00:15:00
9:00 PM,41.0,41.0,100,29.76,0.2,NNW,6.9,-,N/A,Fog,Fog,340,2012-10-29 01:00:00
9:20 PM,41.0,41.0,100,29.76,0.2,NNW,5.8,-,N/A,Fog,Fog,340,2012-10-29 01:20:00
10:05 PM,39.2,39.2,100,29.76,0.2,NW,5.8,-,N/A,Fog,Fog,320,2012-10-29 02:05:00
10:45 PM,39.2,39.2,100,29.75,0.2,NNW,5.8,-,N/A,Fog,Fog,330,2012-10-29 02:45:00
11:10 PM,37.4,37.4,100,29.75,0.2,NNW,6.9,-,N/A,Fog,Fog,330,2012-10-29 03:10:00
11:30 PM,37.4,37.4,100,29.74,0.2,NW,8.1,-,N/A,Fog,Fog,320,2012-10-29 03:30:00
11:50 PM,37.4,37.4,100,29.74,0.2,NNW,6.9,-,N/A,Fog,Fog,330,2012-10-29 03:50:00